Location: Saratoga Springs
(43.0831°N, 73.7850°W)
Time: 18:16:38
(UTC-04:00)

Tiros 1 despin weight - Pass Details

Date: 22 April 2024
Orbit: 578 x 620 km, 48.2° (Epoch: 29 May)

Event Time Altitude Azimuth Distance (km) Brightness Sun altitude
Rises 19:24:43 0° 288° (WNW) 2,877 ? 3.0°
Reaches altitude 10° 19:27:25 10° 273° (W) 1,975 ? 2.5°
Maximum altitude 19:30:53 22° 223° (SW) 1,363 ? 1.9°
Drops below altitude 10° 19:34:22 10° 173° (S) 1,977 ? 1.3°
Sets 19:37:05 0° 158° (SSE) 2,880 ? 0.8°
